Погода в Туле

Хотите узнать прогноз погоды в Туле? Тогда Вам сюда: Погода в Туле

Поиск расширенной информации на нашем сайте:

Полезная информация:

Новости сайта



02.01.2020
Опубликован Долгосрочный прогноз погоды по городам России и ближнего зарубежья на январь 2020 года.
Карты: Прогноз на январь и февраль 2020 года, Сравнение прогнозируемой аномалии приземной температуры воздуха на январь 2020 года по разным моделям.




Погода в Туле - сегодня

Время (UTC), дата Ветер
(°,м/с) 
Видим.   Явления Облачность Т
(°С)
Тd
(°С)
f(%) Тe
(°С)
Pmin
(гПа)
dP
(гПа)
Po
(мм)
O2
(г/м3)
Тmin Tmax R s Состояние
почвы
00 19.01.20 220 (ЮЗ) 10 км    10/8 1000 м средняя 
[Sc|Ac und]
-3.2 -4.6 90 -6  1026.5  0.2  750  306           
03 19.01.20 250 (З) 10 км    10/10 1000 м 
[Sc]
-2.9 -3.9 93 -5  1027.2  0.8  751  306  -3.3         
06 19.01.20 250 (З) 10 км    10/10 1000 м 
[Sc]
-2.8 -4.1 91 -4  1028  0.8  751  306  -3.3      равномерный
мокрый или
старый снег
100% 
09 19.01.20 240 (ЮЗ) 4000 м  дымка  10/10 600 м 
[Sc]
-2.5 -3.8 91 -5  1028.7  0.7  752  306           
12 19.01.20 260 (З) 10 км    10/10 1000 м 
[Sc]
-2.4 -4 89 -4  1029  0.3  752  306           
15 19.01.20 260 (З) 10 км    10/10 1000 м 
[Sc]
-2.3 -3.5 91 -3  1029.9  0.9  753  306           
18 19.01.20 240 (ЮЗ) 10 км    10/10 1000 м 
[Sc]
-1.9 -3.1 91 -4  1030.4  0.5  753  306    -1.9       
21 19.01.20 250 (З) 10 км    10/10 1000 м 
[Sc]
-1.7 -2.8 92 -4  1030.7  0.3  753  306           
00 20.01.20 250 (З) 10 км    10/10 1000 м 
[Sc]
-1.6 -3 90 -4  1030.5  -0.2  753  306           
03 20.01.20 250 (З) 10 км    10/10 1000 м 
[Sc]
-1 -2.6 89 -3  1029.9  -0.5  753  305  -2.3         
06 20.01.20 240 (ЮЗ) 2000 м  слаб. ливневой снег  10/10 600 м кучево-дожд. 
[Cb calv]
-0.6 -2.4 88 -2  1029.7  -0.2  753  304  -1.9    0.0  равномерный
мокрый или
старый снег
100% 
09 20.01.20 250 (З) 4000 м  слаб. ливневой снег  10/10 600 м кучево-дожд. 
[Cb calv]
+0.6 -1.3 87 -1  1029.2  -0.4  752  303           
12 20.01.20 250 (З) 10 км  в посл. час ливневой снег  10/10 600 м кучево-дожд. 
[Cb calv]
+1 +0.3 95 -1  1027.8  -1.3  751  302           
15 20.01.20 250 (З) 10 км  {ливн. осадки}  8/8 1000 м средняя 
[Sc|Ac trans]
+1 -0 93 -1  1027.1  -0.7  751  301      0.0     
18 20.01.20 240 (ЮЗ) 10 км  в посл. час ливневой снег  10/10 600 м кучево-дожд. 
[Cb calv]
+0.7 -1 88 -2  1026  -1  750  302    +1.2  0.4     
21 20.01.20 250 (З) 10 км  слаб. ливневой снег  10/10 600 м кучево-дожд. 
[Cb calv]
+0.7 +0 95 -2  1024.2  -1.7  749  301           
00 21.01.20 250 (З) 10 км  {ливн. осадки}  9/0 средняя 
[Ac trans]
+0.4 -2.6 80 -3  1022  -2.2  747  301           
03 21.01.20 240 (ЮЗ) 10 км    9/8 600 м кучево-дожд., средняя 
[Cb calv|Ac trans]
+0.7 -1.9 83 -2  1018.6  -3.3  745  299  +0.4    0.4     
06 21.01.20 240 (ЮЗ) 5{10}  10 км  {ливн. осадки}  10/10 600 м кучево-дожд. 
[Cb calv]
+0.6 -1.5 86 -2  1015.2  -3.3  742  299  +0.4    0.0  равномерный
мокрый или
старый снег
100% 
09 21.01.20 240 (ЮЗ) 6-10{11}  10 км  {ливн. осадки}  10/10 600 м кучево-дожд. 
[Cb calv]
+0.9 -0.8 88 -2  1012.4  -2.7  740  297           
12 21.01.20 250 (З) 5-10{12}  10 км  {ливн. осадки}  10/10 600 м кучево-дожд. 
[Cb calv]
+1.3 -0.5 88 -1  1009.8  -2.5  738  296           
15 21.01.20 250 (З) 6-10{11}  10 км  в посл. час ливневой дождь  10/10 600 м 
[Sc]
+1.1 +0.3 94 -2  1007.4  -2.3  737  295      0.4     
18 21.01.20 240 (ЮЗ) 5{12}  10 км  в посл. час ливневой дождь  10/10 600 м кучево-дожд. 
[Cb calv]
+1.7 +0.9 94 -1  1003.9  -3.4  734  294    +1.7  0.5     
21 21.01.20 290 (З) 3{11}  10 км  слаб. ливневой дождь  10/10 600 м кучево-дожд. 
[Cb calv]
+2.8 +2 94 +1  1003.5  -0.3  734  292           
00 22.01.20 270 (З) 3{12}  10 км  {ливн. осадки}  4/4 600 м 
[Sc]
+2 -0.9 81 +1  1003.6  734  294           
Время (UTC), дата Ветер
(°,м/с) 
Видим.   Явления Облачность Т
(°С)
Тd
(°С)
f(%) Тe
(°С)
Pmin
(гПа)
dP
(гПа)
Po
(мм)
O2
(г/м3)
Тmin Tmax R s Состояние
почвы

Для получения пояснительной информации подведите курсор к названию столбца.

ПОГОДА в Туле - архив

Всё, что Вы хотите узнать о погоде в Туле - удобно и подробно!

Выберите нужную дату (начиная с 1 января 2019* года) и нажмите кнопку "Найти".
Будут отображены архивные сводки погоды по пункту Тула, начиная с указанной даты.


Отображать данные в формате CSV (для использования в таблицах Excel)


Внимание! Наш архив погоды предназначен исключительно для личного некоммерческого использования в познавательных целях. Если Вам необходимы официальные справки о состоянии погоды (для производственных, юридических, коммерческих и т.п. целей), обращайтесь в органы Росгидромета.

*Примечание: данная дата относится к архиву по метеостанциям СССР (Россия, СНГ, Балтия).
Архив по метеостанциям Зарубежной Европы и Азии (кроме Китая) хранится 10 дней, по другим регионам земного шара (Китай, Африка, Америка, Австралия, Океания) - 1 день.

Тула - район местоположения метеостанции


Название, широта, долгота, высота метеостанции:
Тула 54.2°ш. 37.6°д. 203 м над ур. моря [Российская Федерация]

Дополнительная информация

В oтличие oт бoльшинства пoгoдных сайтoв мы публикуем пoдрoбную метеoинфoрмацию в детальнoм прoфессиoнальнoм фoрмате.

Характеристики температуры и влажнoсти вoздуха измеряются на высoте 2 м в тени вдали oт зданий и деревьев.
Скoрoсть ветра измеряется на высoте 10 м (на урoвне рoста челoвека скoрoсть ветра ниже в 1.5-2 раза). Если метеoстанция нахoдится в гoрoде или в лесу, тo скoрoсть ветра занижена на 2-4 м/с пo сравнению с oткрытым местoм. Скoрoсть ветра над акватoриями крупных рек и oзёр, а также на вершинах хoлмoв на 2-5 м/с выше, чем в oбычных услoвиях.
Атмoсфернoе давление в разных тoчках местнoсти мoжет значительнo oтличаться oт давления на метеoстанции, в зависимoсти oт услoвий рельефа (при пoдъёме на 10 м давление пoнижается примернo на 1 мм рт.ст.).